| time (UTC) | temp F | wind direction | speed MPH | gust MPH | rain 1hr in | rain 24hr in | rain mn in | humidity % | barometer mb |
| 20260508205213 | 43 | 92 | 20.0 | 50.0 | 0.00 | 0.00 | 0.00 | 66 | 796.4 |
| 20260508204157 | 43 | 92 | 20.0 | 50.0 | 0.00 | 0.00 | 0.00 | 66 | 796.5 |
| 20260508203143 | 42 | 92 | 20.0 | 50.0 | 0.00 | 0.00 | 0.00 | 66 | 796.5 |
| 20260508202127 | 43 | 92 | 20.0 | 50.0 | 0.00 | 0.00 | 0.00 | 66 | 796.6 |
| 20260508201111 | 43 | 92 | 20.0 | 50.0 | 0.00 | 0.00 | 0.00 | 66 | 796.5 |
| 20260508200055 | 43 | 92 | 20.0 | 50.0 | 0.00 | 0.00 | 0.00 | 66 | 796.6 |
| 20260508194023 | 43 | 92 | 20.0 | 50.0 | 0.00 | 0.00 | 0.00 | 65 | 796.7 |
| 20260508193009 | 43 | 92 | 20.0 | 50.0 | 0.00 | 0.00 | 0.00 | 65 | 796.8 |
| 20260508191954 | 43 | 92 | 20.0 | 50.0 | 0.00 | 0.00 | 0.00 | 65 | 796.7 |
| 20260508190939 | 43 | 92 | 20.0 | 50.0 | 0.00 | 0.00 | 0.00 | 65 | 796.7 |
| 20260508185923 | 43 | 92 | 20.0 | 50.0 | 0.00 | 0.00 | 0.00 | 65 | 796.7 |
| 20260508184908 | 44 | 92 | 20.0 | 50.0 | 0.00 | 0.00 | 0.00 | 65 | 796.8 |
| 20260508183853 | 44 | 92 | 20.0 | 50.0 | 0.00 | 0.00 | 0.00 | 65 | 796.9 |
| 20260508181823 | 44 | 92 | 20.0 | 50.0 | 0.00 | 0.00 | 0.00 | 65 | 796.6 |
| 20260508180808 | 44 | 92 | 20.0 | 50.0 | 0.00 | 0.00 | 0.00 | 65 | 796.8 |
| 20260508175752 | 44 | 92 | 20.0 | 50.0 | 0.00 | 0.00 | 0.00 | 65 | 796.9 |
| 20260508174737 | 44 | 92 | 20.0 | 50.0 | 0.00 | 0.00 | 0.00 | 65 | 797.0 |
| 20260508173723 | 44 | 92 | 20.0 | 50.0 | 0.00 | 0.00 | 0.00 | 64 | 797.1 |
| 20260508172708 | 44 | 92 | 20.0 | 50.0 | 0.00 | 0.00 | 0.00 | 64 | 797.2 |
| 20260508171653 | 45 | 92 | 20.0 | 50.0 | 0.00 | 0.00 | 0.00 | 64 | 797.3 |
| 20260508170638 | 44 | 92 | 20.0 | 50.0 | 0.00 | 0.00 | 0.00 | 64 | 797.3 |
| 20260508165623 | 45 | 92 | 20.0 | 50.0 | 0.00 | 0.00 | 0.00 | 64 | 797.5 |
| 20260508163552 | 46 | 92 | 20.0 | 50.0 | 0.00 | 0.00 | 0.00 | 64 | 797.7 |
| 20260508162535 | 46 | 92 | 20.0 | 50.0 | 0.00 | 0.00 | 0.00 | 64 | 797.8 |
| 20260508161520 | 47 | 92 | 20.0 | 50.0 | 0.00 | 0.00 | 0.00 | 64 | 797.9 |
| 20260508160503 | 47 | 92 | 20.0 | 50.0 | 0.00 | 0.00 | 0.00 | 64 | 797.9 |
| 20260508155444 | 47 | 92 | 20.0 | 50.0 | 0.00 | 0.00 | 0.00 | 64 | 797.9 |
| 20260508154428 | 47 | 92 | 20.0 | 50.0 | 0.00 | 0.00 | 0.00 | 64 | 797.9 |
| 20260508153413 | 47 | 92 | 20.0 | 50.0 | 0.00 | 0.00 | 0.00 | 64 | 798.0 |
| 20260508152358 | 47 | 92 | 20.0 | 50.0 | 0.00 | 0.00 | 0.00 | 63 | 798.0 |
| 20260508151343 | 47 | 92 | 20.0 | 50.0 | 0.00 | 0.00 | 0.00 | 63 | 798.0 |
| 20260508150327 | 47 | 92 | 20.0 | 50.0 | 0.00 | 0.00 | 0.00 | 63 | 797.9 |
| 20260508145311 | 48 | 92 | 20.0 | 50.0 | 0.00 | 0.00 | 0.00 | 63 | 797.9 |
| 20260508144254 | 48 | 92 | 20.0 | 50.0 | 0.00 | 0.00 | 0.00 | 63 | 798.0 |
| 20260508143235 | 48 | 92 | 20.0 | 50.0 | 0.00 | 0.00 | 0.00 | 63 | 797.9 |
| 20260508142219 | 49 | 92 | 20.0 | 50.0 | 0.00 | 0.00 | 0.00 | 63 | 797.9 |
| 20260508141202 | 49 | 92 | 20.0 | 50.0 | 0.00 | 0.00 | 0.00 | 63 | 797.8 |
| 20260508140145 | 50 | 92 | 20.0 | 50.0 | 0.00 | 0.00 | 0.00 | 63 | 797.8 |
| 20260508134113 | 50 | 92 | 20.0 | 50.0 | 0.00 | 0.00 | 0.00 | 64 | 797.6 |
| 20260508133056 | 50 | 92 | 20.0 | 50.0 | 0.00 | 0.00 | 0.00 | 64 | 797.6 |
| 20260508132041 | 50 | 92 | 20.0 | 50.0 | 0.00 | 0.00 | 0.00 | 64 | 797.6 |
| 20260508131025 | 50 | 92 | 20.0 | 50.0 | 0.00 | 0.00 | 0.00 | 63 | 797.5 |
| 20260508130010 | 50 | 92 | 20.0 | 50.0 | 0.00 | 0.00 | 0.00 | 64 | 797.3 |
| 20260508123936 | 51 | 92 | 20.0 | 50.0 | 0.00 | 0.00 | 0.00 | 63 | 797.3 |
| 20260508122920 | 50 | 92 | 20.0 | 50.0 | 0.00 | 0.00 | 0.00 | 64 | 797.3 |
| 20260508121904 | 50 | 92 | 20.0 | 50.0 | 0.00 | 0.00 | 0.00 | 64 | 797.3 |
| 20260508120849 | 50 | 92 | 20.0 | 50.0 | 0.00 | 0.00 | 0.00 | 64 | 797.1 |
| 20260508115833 | 51 | 92 | 20.0 | 50.0 | 0.00 | 0.00 | 0.00 | 64 | 797.0 |
| 20260508114815 | 50 | 92 | 20.0 | 50.0 | 0.00 | 0.00 | 0.00 | 64 | 796.9 |
| 20260508112743 | 51 | 92 | 20.0 | 50.0 | 0.00 | 0.00 | 0.00 | 64 | 796.7 |
| 20260508111728 | 51 | 92 | 20.0 | 50.0 | 0.00 | 0.00 | 0.00 | 64 | 796.7 |
| 20260508110712 | 51 | 92 | 20.0 | 50.0 | 0.00 | 0.00 | 0.00 | 64 | 796.6 |
| 20260508105655 | 51 | 92 | 20.0 | 50.0 | 0.00 | 0.00 | 0.00 | 64 | 796.4 |
| 20260508104639 | 51 | 92 | 20.0 | 50.0 | 0.00 | 0.00 | 0.00 | 63 | 796.3 |
| 20260508103625 | 52 | 92 | 20.0 | 50.0 | 0.00 | 0.00 | 0.00 | 63 | 796.2 |
| 20260508102618 | 52 | 92 | 20.0 | 50.0 | 0.00 | 0.00 | 0.00 | 63 | 796.1 |
| 20260508101610 | 53 | 92 | 20.0 | 50.0 | 0.00 | 0.00 | 0.00 | 63 | 796.1 |
| 20260508100603 | 53 | 92 | 20.0 | 50.0 | 0.00 | 0.00 | 0.00 | 63 | 796.2 |
| 20260508095555 | 54 | 92 | 20.0 | 50.0 | 0.00 | 0.00 | 0.00 | 63 | 796.2 |
| 20260508094546 | 54 | 92 | 20.0 | 50.0 | 0.00 | 0.00 | 0.00 | 62 | 795.9 |
| 20260508093538 | 54 | 92 | 20.0 | 50.0 | 0.00 | 0.00 | 0.00 | 62 | 795.9 |
| 20260508092527 | 53 | 92 | 20.0 | 50.0 | 0.00 | 0.00 | 0.00 | 62 | 795.8 |
| 20260508091520 | 55 | 92 | 20.0 | 50.0 | 0.00 | 0.00 | 0.00 | 62 | 796.0 |
| 20260508090511 | 55 | 92 | 20.0 | 50.0 | 0.00 | 0.00 | 0.00 | 62 | 795.8 |
| 20260508085504 | 55 | 92 | 20.0 | 50.0 | 0.00 | 0.00 | 0.00 | 61 | 795.7 |
| 20260508084457 | 56 | 92 | 20.0 | 50.0 | 0.00 | 0.00 | 0.00 | 60 | 795.8 |
| 20260508083446 | 55 | 92 | 20.0 | 50.0 | 0.00 | 0.00 | 0.00 | 60 | 795.6 |
| 20260508082438 | 55 | 92 | 20.0 | 50.0 | 0.00 | 0.00 | 0.00 | 61 | 795.9 |
| 20260508081430 | 56 | 92 | 20.0 | 50.0 | 0.00 | 0.00 | 0.00 | 60 | 795.5 |
| 20260508080421 | 58 | 92 | 20.0 | 50.0 | 0.00 | 0.00 | 0.00 | 61 | 795.6 |
| 20260508075413 | 57 | 92 | 20.0 | 50.0 | 0.00 | 0.00 | 0.00 | 61 | 795.6 |
| 20260508074405 | 55 | 92 | 20.0 | 50.0 | 0.00 | 0.00 | 0.00 | 61 | 795.6 |
| 20260508073357 | 56 | 92 | 20.0 | 50.0 | 0.00 | 0.00 | 0.00 | 60 | 795.7 |
| 20260508072349 | 58 | 92 | 20.0 | 50.0 | 0.00 | 0.00 | 0.00 | 60 | 795.7 |
| 20260508071340 | 57 | 92 | 20.0 | 50.0 | 0.00 | 0.00 | 0.00 | 62 | 795.7 |
| 20260508070332 | 60 | 92 | 20.0 | 50.0 | 0.00 | 0.00 | 0.00 | 61 | 795.7 |
| 20260508064316 | 58 | 92 | 20.0 | 50.0 | 0.00 | 0.00 | 0.00 | 61 | 795.8 |
| 20260508063307 | 58 | 92 | 20.0 | 50.0 | 0.00 | 0.00 | 0.00 | 60 | 795.8 |
| 20260508062255 | 58 | 92 | 20.0 | 50.0 | 0.00 | 0.00 | 0.00 | 61 | 795.8 |
| 20260508061247 | 59 | 92 | 20.0 | 50.0 | 0.00 | 0.00 | 0.00 | 60 | 795.8 |
| 20260508060239 | 58 | 92 | 20.0 | 50.0 | 0.00 | 0.00 | 0.00 | 61 | 795.0 |
| 20260508055229 | 57 | 92 | 20.0 | 50.0 | 0.00 | 0.00 | 0.00 | 60 | 795.9 |
| 20260508054220 | 57 | 92 | 20.0 | 50.0 | 0.00 | 0.00 | 0.00 | 60 | 795.9 |
| 20260508053210 | 58 | 92 | 20.0 | 50.0 | 0.00 | 0.00 | 0.00 | 61 | 796.0 |
| 20260508052202 | 60 | 92 | 20.0 | 50.0 | 0.00 | 0.00 | 0.00 | 62 | 796.2 |
| 20260508051151 | 57 | 92 | 20.0 | 50.0 | 0.00 | 0.00 | 0.00 | 62 | 796.4 |
| 20260508050143 | 58 | 92 | 20.0 | 50.0 | 0.00 | 0.00 | 0.00 | 63 | 796.4 |
| 20260508045132 | 58 | 92 | 20.0 | 50.0 | 0.00 | 0.00 | 0.00 | 62 | 796.6 |
| 20260508043114 | 59 | 92 | 20.0 | 50.0 | 0.00 | 0.00 | 0.00 | 61 | 796.5 |
| 20260508042103 | 59 | 92 | 20.0 | 50.0 | 0.00 | 0.00 | 0.00 | 62 | 796.6 |
| 20260508041054 | 58 | 92 | 20.0 | 50.0 | 0.00 | 0.00 | 0.00 | 63 | 796.8 |
| 20260508035032 | 57 | 92 | 20.0 | 50.0 | 0.00 | 0.00 | 0.00 | 62 | 796.9 |
| 20260508034017 | 61 | 92 | 20.0 | 50.0 | 0.00 | 0.00 | 0.00 | 62 | 797.0 |
| 20260508033006 | 62 | 92 | 20.0 | 50.0 | 0.00 | 0.00 | 0.00 | 62 | 797.1 |
| 20260508030951 | 63 | 92 | 20.0 | 50.0 | 0.00 | 0.00 | 0.00 | 61 | 797.2 |
| 20260508025942 | 63 | 92 | 20.0 | 50.0 | 0.00 | 0.00 | 0.00 | 61 | 797.2 |
| 20260508024935 | 63 | 92 | 20.0 | 50.0 | 0.00 | 0.00 | 0.00 | 61 | 797.3 |
| 20260508023928 | 60 | 92 | 20.0 | 50.0 | 0.00 | 0.00 | 0.00 | 60 | 797.3 |
| 20260508022921 | 59 | 92 | 20.0 | 50.0 | 0.00 | 0.00 | 0.00 | 60 | 797.3 |
| 20260508021913 | 61 | 92 | 20.0 | 50.0 | 0.00 | 0.00 | 0.00 | 60 | 797.4 |
| 20260508020904 | 59 | 92 | 20.0 | 50.0 | 0.00 | 0.00 | 0.00 | 61 | 797.4 |
| 20260508015857 | 61 | 92 | 20.0 | 50.0 | 0.00 | 0.00 | 0.00 | 60 | 797.4 |
| 20260508014848 | 58 | 92 | 20.0 | 50.0 | 0.00 | 0.00 | 0.00 | 61 | 797.4 |
| 20260508013840 | 59 | 92 | 20.0 | 50.0 | 0.00 | 0.00 | 0.00 | 62 | 797.5 |
| 20260508012831 | 60 | 92 | 20.0 | 50.0 | 0.00 | 0.00 | 0.00 | 62 | 797.4 |
| 20260508011822 | 61 | 92 | 20.0 | 50.0 | 0.00 | 0.00 | 0.00 | 62 | 797.5 |
| 20260508010814 | 60 | 92 | 20.0 | 50.0 | 0.00 | 0.00 | 0.00 | 62 | 797.4 |
| 20260508005804 | 59 | 92 | 20.0 | 50.0 | 0.00 | 0.00 | 0.00 | 63 | 797.4 |
| 20260508004755 | 60 | 92 | 20.0 | 50.0 | 0.00 | 0.00 | 0.00 | 63 | 797.3 |
| 20260508003744 | 60 | 92 | 20.0 | 50.0 | 0.00 | 0.00 | 0.00 | 63 | 797.2 |
| 20260508002734 | 69 | 92 | 20.0 | 50.0 | 0.00 | 0.00 | 0.00 | 63 | 797.2 |
| 20260508001726 | 73 | 92 | 20.0 | 50.0 | 0.00 | 0.00 | 0.00 | 63 | 797.1 |
| 20260508000717 | 68 | 92 | 20.0 | 50.0 | 0.00 | 0.00 | 0.00 | 63 | 797.2 |
| 20260507235704 | 63 | 92 | 20.0 | 50.0 | 0.00 | 0.00 | 0.00 | 63 | 797.1 |
| 20260507234655 | 55 | 92 | 20.0 | 50.0 | 0.00 | 0.00 | 0.00 | 64 | 797.0 |
| 20260507233648 | 42 | 92 | 20.0 | 50.0 | 0.00 | 0.00 | 0.00 | 64 | 797.0 |
| 20260507232636 | 42 | 92 | 20.0 | 50.0 | 0.00 | 0.00 | 0.00 | 64 | 796.9 |
| 20260507231627 | 41 | 92 | 20.0 | 50.0 | 0.00 | 0.00 | 0.00 | 64 | 796.9 |
| 20260507230618 | 40 | 92 | 20.0 | 50.0 | 0.00 | 0.00 | 0.00 | 64 | 796.8 |
| 20260507225611 | 40 | 92 | 20.0 | 50.0 | 0.00 | 0.00 | 0.00 | 64 | 796.7 |
| 20260507224559 | 40 | 92 | 20.0 | 50.0 | 0.00 | 0.00 | 0.00 | 64 | 796.7 |
| 20260507223551 | 40 | 92 | 20.0 | 50.0 | 0.00 | 0.00 | 0.00 | 64 | 796.6 |
| 20260507222543 | 39 | 92 | 20.0 | 50.0 | 0.00 | 0.00 | 0.00 | 64 | 796.6 |
| 20260507221535 | 40 | 92 | 20.0 | 50.0 | 0.00 | 0.00 | 0.00 | 63 | 796.6 |
| 20260507220529 | 40 | 92 | 20.0 | 50.0 | 0.00 | 0.00 | 0.00 | 63 | 796.4 |
| 20260507215522 | 39 | 92 | 20.0 | 50.0 | 0.00 | 0.00 | 0.00 | 64 | 796.4 |
| 20260507214514 | 40 | 92 | 20.0 | 50.0 | 0.00 | 0.00 | 0.00 | 63 | 796.4 |
| 20260507213505 | 41 | 92 | 20.0 | 50.0 | 0.00 | 0.00 | 0.00 | 65 | 796.5 |
| 20260507212455 | 40 | 92 | 20.0 | 50.0 | 0.00 | 0.00 | 0.00 | 64 | 796.4 |
| 20260507211445 | 40 | 92 | 20.0 | 50.0 | 0.00 | 0.00 | 0.00 | 63 | 796.2 |
| 20260507210437 | 40 | 92 | 20.0 | 50.0 | 0.00 | 0.00 | 0.00 | 63 | 796.3 |